Find Starlink 11414

NORAD ID: 61948 Int'l Des: 2024-209 Owner: SPXS Country: US Constellation: starlink operational
LEOCIRCULAR

当前视图

正在加载3D地球...

About Starlink 11414

Starlink 11414 (NORAD 61948) is a starlink constellation satellite (v2 mini d2c) launched Nov 14, 2024 by SPXS of US. It operates in LEO, CIRCULAR orbit with a mass of 960.00 kg.

关于 Starlink 11414

正在加载描述...

即将过境

Passes for default location (London). Set your location on the main map for personalized predictions.

高度历史

Loading altitude history...

两行轨道根数

1 61948U 24209K 26161.03218088 .00167364 00000-0 13555-2 0 9999
2 61948 53.1569 275.8741 0000961 78.3822 281.7304 15.69765925 91223
Epoch: Jun 10, 2026 • Age: 12 hours

当前状态

高度 377.0 km
速度 7.68 km/s
星下点 -50.03°S, 69.21°E
发射日期 Nov 14, 2024
运行时间 1.5 years
类型 internet

技术详情

分类 Payload
质量 960.00 kg
干质量 910.00 kg
总质量 960.00 kg
长度 0.30 m
直径 4.10 m
跨度 29.00 m
形状 Box + pan
制造商 SPXS
平台类型 Starlink V2MD
阶段状态 In Orbit
所有者/国家 SPXS/US

Most Searched